Trinidad, CO

8:28 PM MST on December 10, 2017 (GMT -0700)
Stokes

Weather History for KTAD - August, 2013

Change the Weather History Date:

Saturday, August 31, 2013

  Actual Average Record
Temperature  
Mean Temperature 78 °F 69 °F  
Max Temperature 95 °F 84 °F 98 °F (1985)
Min Temperature 61 °F 55 °F 46 °F (1967)
Degree Days  
Heating Degree Days 0 1  
Month to date heating degree days 5 3  
Since 1 June heating degree days 26 49  
Since 1 July heating degree days 5 10  
Cooling Degree Days 13 5  
Month to date cooling degree days 279 207  
Year to date cooling degree days 926 642  
Since 1 June cooling degree days 863 614  
Growing Degree Days 26 (Base 50)    
Moisture  
Dew Point 46 °F    
Average Humidity 37    
Maximum Humidity 53    
Minimum Humidity 21    
Precipitation  
Precipitation T in 0.06 in 0.78 in (1966)
Month to date precipitation 1.92 2.23  
Year to date precipitation 7.31 10.46  
Sea Level Pressure  
Sea Level Pressure 29.94 in    
Wind  
Wind Speed 9 mph (SW)    
Max Wind Speed 26 mph    
Max Gust Speed 33 mph    
Visibility 10 miles    
Events Rain , Thunderstorm    
T = Trace of Precipitation, MM = Missing Value Source: NWS Daily Summary

Daily Weather History Graph

Daily Weather History Graph

Search for Another Location

Airport or City:

Trip Planner

Search our weather history database for the weather conditions in past years. The results will help you decide how hot, cold, wet, or windy it might be!

Date:

Astronomy

Aug. 31, 2013 Rise Set
Actual Time 6:27 AM MDT 7:27 PM MDT
Civil Twilight 6:00 AM MDT 7:53 PM MDT
Nautical Twilight 5:28 AM MDT 8:25 PM MDT
Astronomical Twilight 4:56 AM MDT 8:58 PM MDT
Moon 2:02 AM MDT (8/31) 4:23 PM MDT (8/31)
Length of Visible Light 13h 53m
Length of Day
12h 59m
Waning Crescent, 20% of the Moon is Illuminated
Aug 31
Waning Crescent
Sep 5
New
Sep 12
First Quarter
Sep 19
Full
Sep 26
Last Quarter

Hourly Weather History & Observations

Time (MDT) Temp. Dew Point Humidity Pressure Visibility Wind Dir Wind Speed Gust Speed Precip Events Conditions
12:54 AM 64.9 °F 39.9 °F 40% 29.88 in 10.0 mi West 10.4 mph - N/A   Clear
1:54 AM 64.9 °F 39.0 °F 39% 29.88 in 10.0 mi West 11.5 mph - N/A   Clear
2:54 AM 64.9 °F 41.0 °F 42% 29.87 in 10.0 mi West 11.5 mph - N/A   Clear
3:54 AM 64.0 °F 41.0 °F 43% 29.87 in 10.0 mi WSW 10.4 mph - N/A   Clear
4:54 AM 64.0 °F 41.0 °F 43% 29.88 in 10.0 mi WSW 11.5 mph - N/A   Clear
5:54 AM 63.0 °F 41.0 °F 45% 29.88 in 10.0 mi West 12.7 mph - N/A   Clear
6:54 AM 61.0 °F 41.0 °F 48% 29.94 in 10.0 mi WNW 3.5 mph - N/A   Clear
7:54 AM 68.0 °F 43.0 °F 40% 29.93 in 10.0 mi WSW 8.1 mph - N/A   Clear
8:54 AM 77.0 °F 44.1 °F 31% 29.91 in 10.0 mi WSW 9.2 mph - N/A   Clear
9:54 AM 82.0 °F 45.0 °F 27% 29.90 in 10.0 mi West 8.1 mph - N/A   Clear
10:54 AM 84.9 °F 45.0 °F 25% 29.89 in 10.0 mi Calm Calm - N/A   Clear
11:54 AM 89.1 °F 45.0 °F 22% 29.87 in 10.0 mi Variable 3.5 mph - N/A   Clear
12:54 PM 91.0 °F 46.0 °F 21% 29.84 in 10.0 mi NE 8.1 mph - N/A   Clear
1:54 PM 91.9 °F 44.1 °F 19% 29.82 in 10.0 mi ENE 4.6 mph 16.1 mph N/A Thunderstorm Clear
2:20 PM 91.4 °F 44.6 °F 20% 30.12 in 10.0 mi ESE 6.9 mph - N/A   Clear
2:28 PM 89.6 °F 44.6 °F 21% 30.13 in 10.0 mi West 17.3 mph 21.9 mph N/A Thunderstorm Partly Cloudy
2:45 PM 84.2 °F 46.4 °F 27% 30.13 in 10.0 mi NW 17.3 mph 23.0 mph N/A   Mostly Cloudy
2:54 PM 82.9 °F 48.9 °F 31% 29.87 in 10.0 mi West 12.7 mph 23.0 mph N/A   Mostly Cloudy
3:04 PM 82.4 °F 48.2 °F 30% 30.13 in 10.0 mi West 11.5 mph - N/A Thunderstorm Mostly Cloudy
3:37 PM 80.6 °F 51.8 °F 37% 30.12 in 10.0 mi SSW 8.1 mph - 0.00 in Rain Light Rain
3:44 PM 82.4 °F 46.4 °F 28% 30.12 in 10.0 mi SSE 21.9 mph - 0.00 in Thunderstorm Thunderstorm
3:54 PM 86.0 °F 46.0 °F 25% 29.85 in 10.0 mi SE 23.0 mph 29.9 mph 0.00 in Rain , Thunderstorm Light Thunderstorms and Rain
4:04 PM 86.0 °F 46.4 °F 25% 30.11 in 10.0 mi SE 19.6 mph 33.4 mph 0.00 in Rain Light Rain
4:54 PM 84.9 °F 46.9 °F 27% 29.83 in 10.0 mi SSE 15.0 mph - 0.00 in   Clear
5:54 PM 84.9 °F 46.9 °F 27% 29.83 in 10.0 mi SSE 10.4 mph - N/A   Clear
6:54 PM 82.0 °F 46.9 °F 29% 29.86 in 10.0 mi South 6.9 mph - N/A   Mostly Cloudy
7:54 PM 78.1 °F 50.0 °F 37% 29.91 in 10.0 mi North 16.1 mph 19.6 mph N/A   Overcast
8:54 PM 73.0 °F 52.0 °F 48% 29.92 in 10.0 mi NNE 5.8 mph - 0.00 in   Mostly Cloudy
9:54 PM 72.0 °F 51.1 °F 48% 29.91 in 10.0 mi Calm Calm - N/A   Clear
10:54 PM 71.1 °F 51.1 °F 49% 29.93 in 10.0 mi ESE 3.5 mph - N/A   Clear
11:54 PM 70.0 °F 52.0 °F 53% 29.93 in 10.0 mi SSE 4.6 mph - N/A   Mostly Cloudy